Home > Weather > Chur > Past weeks

Flag for Switzerland Past Weather in Chur, Graubünden, Switzerland — Yesterday and Last 2 Weeks

Now
70 °F

Mild.


Feels Like: 70 °F
Forecast: 64 / 83 °F
Wind: 12 mph from Northeast

Location: Chur

Current Time: Jul 24, 2016 at 10:27:21 PM

Latest Report: Jul 24, 2016 at 9:00 PM


Visibility: N/A

Pressure: 30.05 "Hg (28.05 "Hg at 592m altitude)

Humidity: 76%

Dew Point: 62 °F

Location of ChurLocation

Past Weather in Chur — Graph

°F

Chur Temperature Yesterday

Maximum temperature yesterday: 73 °F (at 6:00 PM)
Minimum temperature yesterday: 61 °F (at 6:00 AM)
Average temperature yesterday: 66 °F

High & Low Weather Summary for the Past Weeks

 TemperatureHumidityPressure
High89 °F (Jul 20, 4:00 PM)96% (Jul 12, 6:00 AM)30.39 "Hg (Jul 12, 6:00 AM)
Low47 °F (Jul 16, 6:00 AM)33% (Jul 20, 3:00 PM)29.77 "Hg (Jul 11, 4:00 PM)
Average66 °F72%30.07 "Hg
* Reported Jul 9 9:00 PM — Jul 24 9:00 PM, Chur, Weather by CustomWeather, © 2016

Note: Actual official high and low records may vary slightly from our data, if they occured in-between our weather recording intervals... More about our weather records

Advertising

Chur Weather History for the Previous 24 Hours

Scroll right to see more
 ConditionsComfort  
Time TempWeatherWind HumidityBarometerVisibility
9:00 PM
Sun, Jul 24
70 °FMild.12 mph76%30.05 "HgN/A
8:00 PM72 °FMild.8 mph71%30.02 "HgN/A
7:00 PM75 °FMild.7 mph63%29.99 "HgN/A
6:00 PM75 °FMild.3 mph60%29.99 "HgN/A
5:00 PM79 °FOvercast.12 mph59%29.97 "Hg10 mi
4:00 PM79 °FWarm.16 mph56%29.96 "HgN/A
3:00 PM79 °FWarm.16 mph57%29.97 "HgN/A
2:00 PM77 °FPartly sunny.15 mph57%29.99 "Hg12 mi
1:00 PM76 °FMild.12 mph60%30.00 "HgN/A
12:00 PM75 °FMild.7 mph58%30.02 "HgN/A
11:00 AM71 °FMild.1 mph59%30.05 "HgN/A
10:00 AM70 °FMild.2 mph66%30.07 "HgN/A
9:00 AM66 °FMild.2 mph71%30.10 "HgN/A
8:00 AM63 °FScattered clouds.No wind81%30.11 "Hg9 mi
7:00 AM61 °FCool.3 mph87%30.13 "HgN/A
6:00 AM61 °FCool.1 mph89%30.13 "HgN/A
5:00 AM63 °FMild.1 mph83%30.11 "HgN/A
4:00 AM63 °FMild.1 mph90%30.12 "HgN/A
3:00 AM64 °FMild.2 mph86%30.12 "HgN/A
2:00 AM65 °FDrizzle. Overcast.2 mph85%30.12 "Hg7 mi
1:00 AM65 °FMild.2 mph85%30.12 "HgN/A
12:00 AM65 °FMild.2 mph88%30.12 "HgN/A
11:00 PM
Sat, Jul 23
64 °FFog.No wind90%30.10 "Hg7 mi
10:00 PM66 °FMild.1 mph86%30.06 "HgN/A
Weather by CustomWeather, © 2016

See weather overviewHow to use our weather pages